Погода в Сьенфуэгосе

Куба     22°08′50″N   80°26′34″W
темп.,
°C
ветер,
м/с
пор.,
м/с
влажн.,
%
обл.,
%
осадки,
мм/ч
давл.,
гПа
погр.,
м
18 сентября, сб
сб1823:00+24св37900 0.9 1018184
02:00+23всв389260 0.9 1016181
05:00+23всв3693100 0.0 1016121
08:00+24св3791100 0.0 1017204
11:00+32всв5654100 0.0 10171331
14:00+35всв663891 0.0 10152257
17:00+34всв6542100 0.0 10131996
20:00+28всв5976100 0.0 1015436
19 сентября, вс
вс1923:00+25всв399160 0.0 1016260
02:00+24св379575 0.0 1015184
05:00+24св369689 0.0 1014138
08:00+25всв3788100 0.0 1015232
11:00+32всв5654100 0.0 10161354
14:00+35в6540100 0.0 10132369
17:00+33в754690 0.0 10121791
20:00+27всв597717 0.0 1013387
20 сентября, пн
пн2023:00+25всв49895 0.1 1015262
02:00+24всв389424 0.1 1014215
05:00+23всв379585 0.3 1014166
08:00+25всв379179 0.4 1015239
11:00+32в5755100 0.0 10161393
14:00+35в6643100 0.0 10132221
17:00+34всв4442100 0.1 10121857
20:00+26всв4983100 0.8 1014228
21 сентября, вт
вт2123:00+25всв410924 0.1 1015282
02:00+24всв39935 0.1 1014223
05:00+23всв37943 0.0 1014171
08:00+24всв39901 0.0 1015294
11:00+32в57521 0.0 10151513
14:00+36в553826 0.0 10132510
17:00+33вюв554937 0.4 10121533
20:00+27всв486718 1.0 1014286
22 сентября, ср
ср2223:00+23ссв349128 0.0 101597
02:00+23св369528 0.0 1014146
05:00+23св36945 0.0 1013147
08:00+25св358417 0.0 1013155
11:00+33в444712 0.0 10141511
14:00+33ю544892 0.2 10111426
17:00+33ююз334886 0.1 10101782
20:00+25с2289100 16.0 101254